DW4188 Victoria Point QNL AU current weather conditions

sailwx.info

Wind from 007 at 3 knots gusting 7

Air temperature 27.8° C
Dewpoint 15.4° C

Last reported at 2014-Dec-25 07:45 UTC.
Time now 2014-Dec-25 08:34 UTC

Location: S 27°35' E 153°18'.
View on Google Maps.

See reports from other nearby stations

  
Tides and Currents Weather Stations Pressure Air Temp Water Temp Dewpoint Dewpoint Depression Visibility Wind Speed Wind Dir Waves Ship Positions
date/time (UTC)wind fromknots sea level pressurealtimeterstation pressurevisibilityair tempwater tempwave heightnotes
2014-Dec-25 07:45 007 3 gusting 7 27.8
2014-Dec-25 07:27 015 2 gusting 5 27.8
2014-Dec-25 07:18 010 3 gusting 5 28.3
2014-Dec-25 06:42 012 3 gusting 6 29.4
2014-Dec-25 06:33 007 3 gusting 9 29.4
2014-Dec-25 06:24 014 4 gusting 8 29.4
2014-Dec-25 06:15 016 5 gusting 6 30.6
2014-Dec-25 05:30 020 4 gusting 7 31.1
2014-Dec-25 05:12 007 3 gusting 6 31.1
2014-Dec-25 05:03 012 3 gusting 6 30.6
2014-Dec-25 04:54 005 4 gusting 6 30.6
2014-Dec-25 04:45 016 4 gusting 8 31.1
2014-Dec-25 04:27 002 3 gusting 8 31.7
2014-Dec-25 04:09 019 5 gusting 9 31.7
2014-Dec-25 03:51 025 5 gusting 7 31.7
2014-Dec-25 03:42 006 3 gusting 8 31.7
2014-Dec-25 03:33 005 5 gusting 6 31.7
2014-Dec-25 03:24 356 3 gusting 7 31.7
2014-Dec-25 03:15 026 4 gusting 6 32.2
2014-Dec-25 03:06 352 3 gusting 6 31.7
2014-Dec-25 02:30 019 3 gusting 6 31.7
2014-Dec-25 02:21 020 5 gusting 6 31.7
2014-Dec-25 02:12 027 3 gusting 6 31.7
2014-Dec-25 02:03 018 3 gusting 6 31.7
2014-Dec-25 01:45 004 3 gusting 6 30.6
2014-Dec-25 01:36 022 2 gusting 5 31.1
2014-Dec-25 01:27 026 2 gusting 5 31.1
2014-Dec-25 01:18 007 4 gusting 5 31.1
2014-Dec-25 01:09 009 4 gusting 5 30.6
2014-Dec-25 01:00 017 1 gusting 5 31.1
2014-Dec-25 00:42 004 3 gusting 7 30.6
2014-Dec-25 00:33 010 3 gusting 7 30.6
2014-Dec-25 00:24 002 3 gusting 5 31.1
2014-Dec-25 00:15 356 3 gusting 5 30.6
2014-Dec-25 00:06 349 3 gusting 6 30.6
2014-Dec-24 23:57 357 4 gusting 6 30.6
2014-Dec-24 23:39 355 3 gusting 5 29.4
2014-Dec-24 23:30 337 4 gusting 6 29.4
2014-Dec-24 23:21 003 1 gusting 5 29.4
2014-Dec-24 23:12 018 5 gusting 5 30.0
2014-Dec-24 22:54 002 6 gusting 6 29.4
2014-Dec-24 22:36 063 2 gusting 5 29.4
2014-Dec-24 22:27 066 3 gusting 3 28.3
2014-Dec-24 22:18 017 3 gusting 5 28.9
2014-Dec-24 22:09 027 2 gusting 5 28.9
2014-Dec-24 21:51 035 1 gusting 5 28.3
2014-Dec-24 21:42 050 2 gusting 5 27.8
2014-Dec-24 21:33 047 2 gusting 4 27.8
2014-Dec-24 21:24 035 2 gusting 3 27.8
2014-Dec-24 21:15 061 2 gusting 4 27.2
2014-Dec-24 20:57 043 1 gusting 3 26.7
2014-Dec-24 20:48 032 1 gusting 3 26.7
2014-Dec-24 20:39 050 2 gusting 5 26.1
2014-Dec-24 20:30 027 3 gusting 4 25.6
2014-Dec-24 20:21 311 0 gusting 1 24.4
2014-Dec-24 20:12 270 23.9
2014-Dec-24 19:54 23.3
2014-Dec-24 19:36 23.3
2014-Dec-24 19:27 22.8
2014-Dec-24 19:18 22.8
2014-Dec-24 19:09 270 22.8
2014-Dec-24 19:00 270 22.8
2014-Dec-24 18:33 22.8
2014-Dec-24 18:15 270 23.3
2014-Dec-24 17:57 270 0 gusting 1 23.3
2014-Dec-24 17:39 270 23.3
2014-Dec-24 16:54 023 23.9
2014-Dec-24 16:45 023 0 gusting 1 23.9
2014-Dec-24 16:36 028 23.9
2014-Dec-24 16:27 023 0 gusting 3 23.9
2014-Dec-24 16:18 026 2 gusting 3 23.9
2014-Dec-24 16:00 036 1 gusting 3 23.9
2014-Dec-24 15:51 032 1 gusting 3 23.9
2014-Dec-24 15:42 019 0 gusting 1 23.9
2014-Dec-24 15:33 025 0 gusting 5 23.9
2014-Dec-24 15:24 020 1 gusting 4 23.9
2014-Dec-24 15:15 030 1 gusting 3 23.9
2014-Dec-24 15:06 026 2 gusting 3 24.4
2014-Dec-24 14:57 025 2 gusting 2 24.4
2014-Dec-24 14:48 031 1 gusting 3 24.4
2014-Dec-24 14:39 021 2 gusting 3 24.4
2014-Dec-24 14:30 027 1 gusting 5 24.4
2014-Dec-24 14:21 023 1 gusting 4 24.4
2014-Dec-24 14:12 024 0 gusting 5 24.4
2014-Dec-24 14:03 035 1 gusting 3 24.4
2014-Dec-24 13:45 065 1 gusting 1 24.4
2014-Dec-24 13:36 053 0 gusting 3 24.4
2014-Dec-24 13:27 040 1 gusting 3 24.4
2014-Dec-24 13:18 065 1 gusting 2 24.4
2014-Dec-24 12:51 041 0 gusting 2 25.0
2014-Dec-24 12:33 051 2 gusting 3 25.0
2014-Dec-24 12:15 040 3 gusting 4 25.0
2014-Dec-24 12:06 019 1 gusting 3 25.0
2014-Dec-24 11:57 021 25.0
2014-Dec-24 11:48 032 1 gusting 4 25.6
2014-Dec-24 11:39 037 1 gusting 3 25.6
2014-Dec-24 11:21 035 1 gusting 5 25.6
2014-Dec-24 11:03 030 2 gusting 4 25.6
2014-Dec-24 10:27 030 2 gusting 6 25.6
2014-Dec-24 10:18 038 0 gusting 5 26.1
2014-Dec-24 10:09 026 1 gusting 5 25.6
2014-Dec-24 10:00 027 3 gusting 5 26.1
2014-Dec-24 09:42 025 1 gusting 4 26.1
2014-Dec-24 09:06 029 3 gusting 6 26.1
2014-Dec-24 08:57 030 1 gusting 3 26.1
2014-Dec-24 08:39 017 4 gusting 4 26.7
2014-Dec-24 08:30 012 1 gusting 5 26.7
2014-Dec-24 08:21 021 2 gusting 5 26.7
2014-Dec-24 08:12 010 2 gusting 5 26.7
2014-Dec-24 08:03 023 2 gusting 5 27.2
2014-Dec-24 07:54 029 1 gusting 6 27.2
2014-Dec-24 07:45 035 4 gusting 6 27.2
2014-Dec-24 07:36 036 3 gusting 8 27.2
2014-Dec-24 07:27 038 5 gusting 8 27.8
2014-Dec-24 07:09 037 4 gusting 7 28.3
2014-Dec-24 07:00 036 3 gusting 6 28.3
2014-Dec-24 06:51 032 5 gusting 6 28.9
2014-Dec-24 06:24 009 3 gusting 7 28.9
2014-Dec-24 05:57 013 3 gusting 8 28.9
2014-Dec-24 05:30 008 5 gusting 7 30.0
2014-Dec-24 05:21 005 5 gusting 5 30.0
2014-Dec-24 05:12 018 3 gusting 7 31.1
2014-Dec-24 05:03 001 5 gusting 8 30.6
2014-Dec-24 04:54 017 4 gusting 8 31.1
2014-Dec-24 04:45 021 2 gusting 8 31.1
2014-Dec-24 04:27 012 4 gusting 8 31.1
2014-Dec-24 04:09 017 4 gusting 7 31.1
2014-Dec-24 03:42 019 6 gusting 9 31.1
2014-Dec-24 03:33 011 4 gusting 7 31.1
2014-Dec-24 03:15 354 3 gusting 8 31.1
2014-Dec-24 03:06 003 3 gusting 7 31.1
2014-Dec-24 02:57 012 4 gusting 7 31.1
2014-Dec-24 02:48 351 5 gusting 6 30.6
2014-Dec-24 02:39 335 3 gusting 6 30.6
2014-Dec-24 02:12 018 1 gusting 6 30.6
2014-Dec-24 02:03 022 3 gusting 6 30.6
2014-Dec-24 01:54 032 3 gusting 6 30.6
2014-Dec-24 01:45 027 2 gusting 5 30.0
2014-Dec-24 01:36 019 4 gusting 6 30.0
2014-Dec-24 01:27 340 3 gusting 8 29.4
2014-Dec-24 01:18 347 5 gusting 8 29.4
2014-Dec-24 01:09 030 3 gusting 6 29.4
2014-Dec-24 00:51 021 3 gusting 6 31.1
2014-Dec-24 00:42 028 5 gusting 6 30.6
2014-Dec-24 00:15 341 3 gusting 7 30.0
2014-Dec-24 00:06 345 4 gusting 6 29.4
2014-Dec-23 23:57 352 3 gusting 6 29.4
2014-Dec-23 23:48 335 3 gusting 6 29.4
2014-Dec-23 23:39 352 2 gusting 5 29.4
2014-Dec-23 23:30 334 3 gusting 6 28.9
2014-Dec-23 23:21 336 3 gusting 5 28.9
2014-Dec-23 23:03 005 3 gusting 6 28.9
2014-Dec-23 22:54 354 2 gusting 5 28.3
2014-Dec-23 22:45 017 1 gusting 5 28.3
2014-Dec-23 22:27 332 1 gusting 5 27.8
2014-Dec-23 22:09 354 1 gusting 3 27.2
2014-Dec-23 22:00 015 2 gusting 3 27.2
2014-Dec-23 21:33 349 2 gusting 3 26.1
2014-Dec-23 21:24 321 2 gusting 3 25.6
2014-Dec-23 21:06 318 1 gusting 3 25.0
2014-Dec-23 20:57 282 0 gusting 3 25.0
2014-Dec-23 20:48 270 2 gusting 3 24.4
2014-Dec-23 20:39 273 2 gusting 4 23.9
2014-Dec-23 20:30 269 3 gusting 4 23.9
2014-Dec-23 20:21 254 1 gusting 3 23.9
2014-Dec-23 20:03 275 1 gusting 2 22.8
2014-Dec-23 19:45 270 23.3
2014-Dec-23 19:36 258 23.3
2014-Dec-23 19:27 248 0 gusting 1 23.3
2014-Dec-23 19:18 23.3
2014-Dec-23 18:51 266 22.8
2014-Dec-23 18:42 270 0 gusting 1 22.2
2014-Dec-23 18:24 270 23.3
2014-Dec-23 18:15 23.9
2014-Dec-23 17:48 292 23.9
2014-Dec-23 17:39 292 22.8
2014-Dec-23 17:12 22.8
2014-Dec-23 17:03 23.9
2014-Dec-23 16:54 23.3
2014-Dec-23 16:36 292 23.3
2014-Dec-23 16:27 289 23.9
2014-Dec-23 16:18 23.9
2014-Dec-23 16:09 23.3
2014-Dec-23 16:00 270 23.3
2014-Dec-23 15:51 270 0 gusting 0 22.8
2014-Dec-23 15:42 274 23.9
2014-Dec-23 15:33 337 0 gusting 1 23.3
2014-Dec-23 15:24 23.3
2014-Dec-23 15:06 24.4
2014-Dec-23 14:48 023 24.4
2014-Dec-23 14:30 024 25.0
2014-Dec-23 14:12 018 24.4
2014-Dec-23 13:45 017 2 gusting 1 25.0
2014-Dec-23 13:27 022 1 gusting 5 25.0
2014-Dec-23 13:18 023 0 gusting 2 25.6
2014-Dec-23 13:00 037 2 gusting 3 25.0
2014-Dec-23 12:42 024 2 gusting 2 25.0
2014-Dec-23 12:33 060 24.4
2014-Dec-23 12:24 068 1 gusting 2 24.4
2014-Dec-23 12:15 081 0 gusting 1 24.4
2014-Dec-23 12:06 090 0 gusting 1 24.4
2014-Dec-23 11:39 074 0 gusting 1 24.4
2014-Dec-23 11:30 074 1 gusting 1 24.4
2014-Dec-23 11:21 056 0 gusting 2 25.0
2014-Dec-23 11:12 068 0 gusting 2 25.0
2014-Dec-23 10:45 075 0 gusting 1 25.0
2014-Dec-23 10:36 068 0 gusting 2 25.0
2014-Dec-23 10:27 050 0 gusting 2 25.6
2014-Dec-23 10:18 090 25.6
2014-Dec-23 09:51 059 26.1
2014-Dec-23 09:42 048 1 gusting 1 26.1
2014-Dec-23 09:24 046 1 gusting 2 26.7
2014-Dec-23 09:06 046 2 gusting 3 26.7
2014-Dec-23 08:48 050 1 gusting 2 26.1
2014-Dec-23 08:39 055 2 gusting 2 26.1
2014-Dec-23 08:30 086 1 gusting 4 25.6
2014-Dec-23 08:21 049 1 gusting 2 26.1
2014-Dec-23 08:12 062 2 gusting 4 26.1